Location: Ceske Budejovice
(48.9830°N, 14.4670°E)
Time: 17:58:13
(UTC+02:00)

BEESAT 2 - Visible Passes

Search period start: 22 August 2019 00:00
Search period end: 01 September 2019 00:00
Orbit: 499 x 530 km, 64.9° (Epoch: 21 August)

Date Brightness Start Highest point End Pass type
(mag) Time Alt. Az. Time Alt. Az. Time Alt. Az.
22 Aug ? 00:41:49 10° NNW 00:44:55 27° NNE 00:44:55 27° NNE visible
22 Aug ? 02:19:13 10° NW 02:19:50 14° NW 02:19:50 14° NW visible
22 Aug ? 22:50:09 10° NNE 22:50:21 10° NNE 22:50:33 10° NNE visible
23 Aug ? 00:25:49 10° NNW 00:28:48 27° NNE 00:28:48 27° NNE visible
23 Aug ? 02:03:14 10° NW 02:03:43 13° NW 02:03:43 13° NW visible
23 Aug ? 22:34:03 10° N 22:34:22 10° NNE 22:34:42 10° NNE visible
24 Aug ? 00:09:49 10° NNW 00:12:45 27° NNE 00:12:45 27° NNE visible
24 Aug ? 01:47:15 10° NW 01:47:41 13° NW 01:47:41 13° NW visible
24 Aug ? 22:17:58 10° N 22:18:23 10° NNE 22:18:48 10° NNE visible
24 Aug ? 23:53:49 10° NNW 23:56:45 27° NNE 23:56:45 27° NNE visible
25 Aug ? 01:31:16 10° NW 01:31:42 13° NW 01:31:42 13° NW visible
25 Aug ? 22:01:56 10° N 22:02:25 10° NNE 22:02:53 10° NNE visible
25 Aug ? 23:37:49 10° NNW 23:40:49 27° NNE 23:40:49 27° NNE visible
26 Aug ? 01:15:17 10° NW 01:15:46 13° NW 01:15:46 13° NW visible
26 Aug ? 21:45:53 10° N 21:46:26 10° NNE 21:46:58 10° NNE visible
26 Aug ? 23:21:50 10° NNW 23:24:56 28° NNE 23:24:56 28° NNE visible
27 Aug ? 00:59:17 10° NW 00:59:52 14° NW 00:59:52 14° NW visible
27 Aug ? 21:29:50 10° N 21:30:27 10° NNE 21:31:03 10° NNE visible
27 Aug ? 23:05:49 10° NNW 23:09:04 28° NNE 23:09:04 28° NNE visible
28 Aug ? 00:43:18 10° NW 00:44:01 15° NW 00:44:01 15° NW visible
28 Aug ? 21:13:48 10° N 21:14:28 10° NNE 21:15:06 10° NNE visible
28 Aug ? 22:49:49 10° NNW 22:53:15 29° NE 22:53:15 29° NE visible
29 Aug ? 00:27:18 10° NW 00:28:12 16° NW 00:28:12 16° NW visible
29 Aug ? 20:57:46 10° N 20:58:28 10° NNE 20:59:10 10° NNE visible
29 Aug ? 22:33:49 10° NNW 22:37:21 29° NE 22:37:27 29° NE visible
30 Aug ? 00:11:19 10° NW 00:12:24 17° WNW 00:12:24 17° WNW visible
30 Aug ? 20:41:44 10° N 20:42:29 10° NNE 20:43:14 10° NNE visible
30 Aug ? 22:17:49 10° NNW 22:21:21 29° NE 22:21:42 29° NE visible
30 Aug ? 23:55:20 10° NW 23:56:39 19° WNW 23:56:39 19° WNW visible
31 Aug ? 20:25:42 10° N 20:26:30 10° NNE 20:27:18 10° NNE visible
31 Aug ? 22:01:49 10° NNW 22:05:23 30° NE 22:05:58 28° ENE visible
31 Aug ? 23:39:20 10° NW 23:40:56 22° WNW 23:40:56 22° WNW visible
